Time,TemperatureF,DewpointF,PressureIn,WindDirection,WindDirectionDegrees,WindSpeedMPH,WindSpeedGustMPH,Humidity,HourlyPrecipIn,Conditions,Clouds,dailyrainin,SolarRadiationWatts/m^2,SoftwareType,DateUTC
2013-11-14 00:02:00,38.8,23.1,30.16,SSW,208,13.0,17.0,53,0.00,,CLR,0.00,0.00,VWS V14.01,2013-11-14 06:02:00,
2013-11-14 00:07:00,38.8,23.1,30.16,SW,226,10.0,17.0,53,0.00,,CLR,0.00,0.00,VWS V14.01,2013-11-14 06:07:00,
2013-11-14 00:12:00,38.8,23.1,30.16,WSW,241,15.0,16.0,53,0.00,,CLR,0.00,0.00,VWS V14.01,2013-11-14 06:12:00,
2013-11-14 00:17:00,38.8,23.1,30.16,SW,224,18.0,19.0,53,0.00,,CLR,0.00,0.00,VWS V14.01,2013-11-14 06:17:00,
2013-11-14 00:22:00,38.9,23.2,30.16,SW,216,20.0,20.0,53,0.00,,CLR,0.00,0.00,VWS V14.01,2013-11-14 06:22:00,
2013-11-14 00:27:00,38.9,23.2,30.15,SW,214,11.0,12.0,53,0.00,,CLR,0.00,0.00,VWS V14.01,2013-11-14 06:27:00,
2013-11-14 00:32:00,38.8,23.1,30.15,SSW,213,12.0,15.0,53,0.00,,CLR,0.00,0.00,VWS V14.01,2013-11-14 06:32:00,
2013-11-14 00:37:00,38.9,23.2,30.15,SW,230,11.0,19.0,53,0.00,,CLR,0.00,0.00,VWS V14.01,2013-11-14 06:37:00,
2013-11-14 00:42:00,39.2,23.1,30.15,SW,226,12.0,15.0,52,0.00,,CLR,0.00,0.00,VWS V14.01,2013-11-14 06:42:00,
2013-11-14 00:47:00,39.1,23.4,30.14,SW,218,14.0,15.0,53,0.00,,CLR,0.00,0.00,VWS V14.01,2013-11-14 06:47:00,
2013-11-14 00:52:00,39.0,23.3,30.14,SSW,213,10.0,17.0,53,0.00,,CLR,0.00,0.00,VWS V14.01,2013-11-14 06:52:00,
2013-11-14 00:57:00,38.9,23.2,30.14,SW,220,16.0,20.0,53,0.00,,CLR,0.00,0.00,VWS V14.01,2013-11-14 06:57:00,
2013-11-14 01:02:00,38.8,23.6,30.14,SW,225,10.0,17.0,54,0.00,,CLR,0.00,0.00,VWS V14.01,2013-11-14 07:02:00,
2013-11-14 01:07:00,38.8,23.6,30.14,SW,220,10.0,18.0,54,0.00,,CLR,0.00,0.00,VWS V14.01,2013-11-14 07:07:00,
2013-11-14 01:12:00,38.7,23.5,30.13,SW,223,16.0,19.0,54,0.00,,CLR,0.00,0.00,VWS V14.01,2013-11-14 07:12:00,
2013-11-14 01:17:00,38.6,23.4,30.13,SW,234,15.0,19.0,54,0.00,,CLR,0.00,0.00,VWS V14.01,2013-11-14 07:17:00,
2013-11-14 01:22:00,38.4,23.7,30.13,SW,218,11.0,16.0,55,0.00,,CLR,0.00,0.00,VWS V14.01,2013-11-14 07:22:00,
2013-11-14 01:27:00,38.4,23.7,30.13,SW,226,15.0,18.0,55,0.00,,CLR,0.00,0.00,VWS V14.01,2013-11-14 07:27:00,
2013-11-14 01:32:00,38.1,23.8,30.12,SW,222,14.0,16.0,56,0.00,,CLR,0.00,0.00,VWS V14.01,2013-11-14 07:32:00,
2013-11-14 01:37:00,38.0,23.7,30.12,SW,234,15.0,17.0,56,0.00,,CLR,0.00,0.00,VWS V14.01,2013-11-14 07:37:00,
2013-11-14 01:42:00,37.9,23.6,30.12,SSW,213,14.0,18.0,56,0.00,,CLR,0.00,0.00,VWS V14.01,2013-11-14 07:42:00,
2013-11-14 01:47:00,38.0,23.7,30.12,SW,220,13.0,17.0,56,0.00,,CLR,0.00,0.00,VWS V14.01,2013-11-14 07:47:00,
2013-11-14 01:52:00,37.9,23.6,30.12,SW,216,13.0,17.0,56,0.00,,CLR,0.00,0.00,VWS V14.01,2013-11-14 07:52:00,
2013-11-14 01:57:00,37.9,24.0,30.12,SW,218,11.0,17.0,57,0.00,,CLR,0.00,0.00,VWS V14.01,2013-11-14 07:57:00,
2013-11-14 02:02:00,38.0,23.7,30.11,SW,220,14.0,19.0,56,0.00,,CLR,0.00,0.00,VWS V14.01,2013-11-14 08:02:00,
2013-11-14 02:07:00,37.9,24.0,30.11,SSW,205,15.0,17.0,57,0.00,,CLR,0.00,0.00,VWS V14.01,2013-11-14 08:07:00,
2013-11-14 02:12:00,37.9,24.0,30.11,SW,228,17.0,17.0,57,0.00,,CLR,0.00,0.00,VWS V14.01,2013-11-14 08:12:00,
2013-11-14 02:17:00,38.0,24.1,30.11,SSW,212,10.0,14.0,57,0.00,,CLR,0.00,0.00,VWS V14.01,2013-11-14 08:17:00,
2013-11-14 02:22:00,37.9,24.0,30.11,SW,223,11.0,14.0,57,0.00,,CLR,0.00,0.00,VWS V14.01,2013-11-14 08:22:00,
2013-11-14 02:27:00,37.8,25.6,30.11,SW,221,16.0,18.0,61,0.00,,CLR,0.00,0.00,VWS V14.01,2013-11-14 08:27:00,
2013-11-14 02:32:00,37.7,23.9,30.11,SW,218,10.0,17.0,57,0.00,,CLR,0.00,0.00,VWS V14.01,2013-11-14 08:32:00,
2013-11-14 02:37:00,37.9,24.0,30.11,SW,216,12.0,15.0,57,0.00,,CLR,0.00,0.00,VWS V14.01,2013-11-14 08:37:00,
2013-11-14 02:42:00,37.9,24.0,30.10,SSW,212,14.0,16.0,57,0.00,,CLR,0.00,0.00,VWS V14.01,2013-11-14 08:42:00,
2013-11-14 02:47:00,38.0,24.1,30.11,SW,226,11.0,17.0,57,0.00,,CLR,0.00,0.00,VWS V14.01,2013-11-14 08:47:00,
2013-11-14 02:52:00,37.9,24.5,30.11,SW,228,13.0,14.0,58,0.00,,CLR,0.00,0.00,VWS V14.01,2013-11-14 08:52:00,
2013-11-14 02:57:00,38.0,24.1,30.10,SW,218,17.0,17.0,57,0.00,,CLR,0.00,0.00,VWS V14.01,2013-11-14 08:57:00,
2013-11-14 03:02:00,38.1,24.2,30.10,SSW,213,11.0,15.0,57,0.00,,CLR,0.00,0.00,VWS V14.01,2013-11-14 09:02:00,
2013-11-14 03:07:00,38.0,24.1,30.10,SW,220,11.0,16.0,57,0.00,,CLR,0.00,0.00,VWS V14.01,2013-11-14 09:07:00,
2013-11-14 03:12:00,37.9,24.5,30.10,SW,225,13.0,13.0,58,0.00,,CLR,0.00,0.00,VWS V14.01,2013-11-14 09:12:00,
2013-11-14 03:17:00,38.0,24.5,30.10,SW,215,14.0,16.0,58,0.00,,CLR,0.00,0.00,VWS V14.01,2013-11-14 09:17:00,
2013-11-14 03:22:00,37.9,24.5,30.10,SW,230,13.0,13.0,58,0.00,,CLR,0.00,0.00,VWS V14.01,2013-11-14 09:22:00,
2013-11-14 03:27:00,37.7,24.7,30.10,SSW,210,8.0,11.0,59,0.00,,CLR,0.00,0.00,VWS V14.01,2013-11-14 09:27:00,
2013-11-14 03:32:00,37.5,24.5,30.09,SW,220,12.0,14.0,59,0.00,,CLR,0.00,0.00,VWS V14.01,2013-11-14 09:32:00,
2013-11-14 03:37:00,37.4,24.4,30.09,SW,227,8.0,13.0,59,0.00,,CLR,0.00,0.00,VWS V14.01,2013-11-14 09:37:00,
2013-11-14 03:42:00,37.4,24.4,30.09,WSW,237,9.0,12.0,59,0.00,,CLR,0.00,0.00,VWS V14.01,2013-11-14 09:42:00,
2013-11-14 03:47:00,37.4,24.8,30.09,SW,232,7.0,12.0,60,0.00,,CLR,0.00,0.00,VWS V14.01,2013-11-14 09:47:00,
2013-11-14 03:52:00,37.4,24.4,30.09,SW,224,7.0,11.0,59,0.00,,CLR,0.00,0.00,VWS V14.01,2013-11-14 09:52:00,
2013-11-14 03:57:00,37.3,24.7,30.09,SW,230,5.0,13.0,60,0.00,,CLR,0.00,0.00,VWS V14.01,2013-11-14 09:57:00,
2013-11-14 04:02:00,37.4,24.8,30.09,SW,234,8.0,11.0,60,0.00,,CLR,0.00,0.00,VWS V14.01,2013-11-14 10:02:00,
2013-11-14 04:07:00,37.4,24.8,30.08,SW,226,11.0,11.0,60,0.00,,CLR,0.00,0.00,VWS V14.01,2013-11-14 10:07:00,
2013-11-14 04:12:00,37.4,24.8,30.08,SW,233,10.0,11.0,60,0.00,,CLR,0.00,0.00,VWS V14.01,2013-11-14 10:12:00,
2013-11-14 04:17:00,37.3,24.7,30.08,SW,220,11.0,12.0,60,0.00,,CLR,0.00,0.00,VWS V14.01,2013-11-14 10:17:00,
2013-11-14 04:22:00,37.2,24.6,30.08,SW,216,6.0,11.0,60,0.00,,CLR,0.00,0.00,VWS V14.01,2013-11-14 10:22:00,
2013-11-14 04:27:00,37.2,24.6,30.08,SW,216,6.0,13.0,60,0.00,,CLR,0.00,0.00,VWS V14.01,2013-11-14 10:27:00,
2013-11-14 04:32:00,37.1,24.9,30.08,SW,218,10.0,12.0,61,0.00,,CLR,0.00,0.00,VWS V14.01,2013-11-14 10:32:00,
2013-11-14 04:37:00,37.0,24.8,30.08,SSW,212,12.0,13.0,61,0.00,,CLR,0.00,0.00,VWS V14.01,2013-11-14 10:37:00,
2013-11-14 04:42:00,37.2,24.6,30.08,SW,222,11.0,13.0,60,0.00,,CLR,0.00,0.00,VWS V14.01,2013-11-14 10:42:00,
2013-11-14 04:47:00,37.3,24.7,30.08,SW,233,9.0,13.0,60,0.00,,CLR,0.00,0.00,VWS V14.01,2013-11-14 10:47:00,
2013-11-14 04:52:00,37.1,24.9,30.08,SW,233,10.0,15.0,61,0.00,,CLR,0.00,0.00,VWS V14.01,2013-11-14 10:52:00,
2013-11-14 04:57:00,37.1,24.9,30.08,SW,216,10.0,12.0,61,0.00,,CLR,0.00,0.00,VWS V14.01,2013-11-14 10:57:00,
2013-11-14 05:02:00,37.0,24.8,30.08,SW,228,10.0,13.0,61,0.00,,CLR,0.00,0.00,VWS V14.01,2013-11-14 11:02:00,
2013-11-14 05:07:00,36.9,24.7,30.08,SW,226,13.0,14.0,61,0.00,,CLR,0.00,0.00,VWS V14.01,2013-11-14 11:07:00,
2013-11-14 05:12:00,37.0,24.8,30.08,SSW,209,11.0,14.0,61,0.00,,CLR,0.00,0.00,VWS V14.01,2013-11-14 11:12:00,
2013-11-14 05:17:00,37.0,24.8,30.08,SSW,207,10.0,12.0,61,0.00,,CLR,0.00,0.00,VWS V14.01,2013-11-14 11:17:00,
2013-11-14 05:22:00,37.0,25.2,30.08,SW,227,11.0,14.0,62,0.00,,CLR,0.00,0.00,VWS V14.01,2013-11-14 11:22:00,
2013-11-14 05:27:00,36.9,24.7,30.08,SSW,203,15.0,16.0,61,0.00,,CLR,0.00,0.00,VWS V14.01,2013-11-14 11:27:00,
2013-11-14 05:32:00,36.7,24.9,30.07,SW,226,8.0,12.0,62,0.00,,CLR,0.00,0.00,VWS V14.01,2013-11-14 11:32:00,
2013-11-14 05:37:00,36.5,25.1,30.07,SW,216,12.0,15.0,63,0.00,,CLR,0.00,0.00,VWS V14.01,2013-11-14 11:37:00,
2013-11-14 05:42:00,36.4,25.0,30.07,SW,220,8.0,12.0,63,0.00,,CLR,0.00,0.00,VWS V14.01,2013-11-14 11:42:00,
2013-11-14 05:47:00,36.3,24.9,30.07,SW,221,8.0,12.0,63,0.00,,CLR,0.00,0.00,VWS V14.01,2013-11-14 11:47:00,
2013-11-14 05:52:00,36.2,25.2,30.07,SW,220,11.0,13.0,64,0.00,,CLR,0.00,0.00,VWS V14.01,2013-11-14 11:52:00,
2013-11-14 05:57:00,36.2,25.2,30.06,SW,234,10.0,12.0,64,0.00,,CLR,0.00,0.00,VWS V14.01,2013-11-14 11:57:00,
2013-11-14 06:02:00,36.1,25.1,30.07,SW,220,14.0,17.0,64,0.00,,CLR,0.00,0.00,VWS V14.01,2013-11-14 12:02:00,
2013-11-14 06:07:00,36.2,25.2,30.07,SW,214,9.0,16.0,64,0.00,,CLR,0.00,0.00,VWS V14.01,2013-11-14 12:07:00,
2013-11-14 06:12:00,36.3,25.3,30.06,SW,218,12.0,15.0,64,0.00,,CLR,0.00,0.00,VWS V14.01,2013-11-14 12:12:00,
2013-11-14 06:17:00,36.2,25.2,30.06,SW,214,14.0,16.0,64,0.00,,CLR,0.00,0.00,VWS V14.01,2013-11-14 12:17:00,
2013-11-14 06:22:00,36.2,25.2,30.06,SW,216,11.0,13.0,64,0.00,,CLR,0.00,0.00,VWS V14.01,2013-11-14 12:22:00,
2013-11-14 06:27:00,36.1,25.1,30.06,SW,224,9.0,16.0,64,0.00,,CLR,0.00,0.00,VWS V14.01,2013-11-14 12:27:00,
2013-11-14 06:32:00,36.2,25.2,30.07,SW,226,6.0,12.0,64,0.00,,CLR,0.00,0.00,VWS V14.01,2013-11-14 12:32:00,
2013-11-14 06:37:00,36.2,25.2,30.07,SW,222,9.0,14.0,64,0.00,,CLR,0.00,0.00,VWS V14.01,2013-11-14 12:37:00,
2013-11-14 06:42:00,36.2,25.2,30.07,SW,217,13.0,15.0,64,0.00,,CLR,0.00,0.00,VWS V14.01,2013-11-14 12:42:00,
2013-11-14 06:47:00,36.1,25.1,30.07,SSW,212,10.0,12.0,64,0.00,,CLR,0.00,7.00,VWS V14.01,2013-11-14 12:47:00,
2013-11-14 06:52:00,36.1,25.1,30.07,SW,226,9.0,15.0,64,0.00,,CLR,0.00,11.00,VWS V14.01,2013-11-14 12:52:00,
2013-11-14 06:57:00,36.3,25.3,30.07,SW,230,11.0,13.0,64,0.00,,CLR,0.00,12.00,VWS V14.01,2013-11-14 12:57:00,
2013-11-14 07:02:00,36.4,25.4,30.07,SSW,213,10.0,13.0,64,0.00,,CLR,0.00,14.00,VWS V14.01,2013-11-14 13:02:00,
2013-11-14 07:07:00,36.4,25.4,30.07,SW,224,13.0,14.0,64,0.00,,CLR,0.00,16.00,VWS V14.01,2013-11-14 13:07:00,
2013-11-14 07:12:00,36.5,25.5,30.07,SW,233,11.0,14.0,64,0.00,,CLR,0.00,21.00,VWS V14.01,2013-11-14 13:12:00,
2013-11-14 07:17:00,36.6,25.6,30.07,SW,228,10.0,12.0,64,0.00,,CLR,0.00,30.00,VWS V14.01,2013-11-14 13:17:00,
2013-11-14 07:22:00,36.8,25.8,30.07,SW,220,9.0,11.0,64,0.00,,CLR,0.00,39.00,VWS V14.01,2013-11-14 13:22:00,
2013-11-14 07:27:00,36.9,25.9,30.07,WSW,239,8.0,11.0,64,0.00,,CLR,0.00,49.00,VWS V14.01,2013-11-14 13:27:00,
2013-11-14 07:32:00,37.1,26.1,30.07,SSW,207,10.0,10.0,64,0.00,,CLR,0.00,56.00,VWS V14.01,2013-11-14 13:32:00,
2013-11-14 07:37:00,37.2,26.2,30.07,SSW,202,8.0,12.0,64,0.00,,CLR,0.00,76.00,VWS V14.01,2013-11-14 13:37:00,
2013-11-14 07:42:00,37.3,26.3,30.07,SW,228,11.0,15.0,64,0.00,,CLR,0.00,70.00,VWS V14.01,2013-11-14 13:42:00,
2013-11-14 07:47:00,37.2,26.2,30.07,SSW,209,6.0,14.0,64,0.00,,CLR,0.00,69.00,VWS V14.01,2013-11-14 13:47:00,
2013-11-14 07:52:00,37.2,26.2,30.07,SSE,168,7.0,11.0,64,0.00,,CLR,0.00,90.00,VWS V14.01,2013-11-14 13:52:00,
2013-11-14 07:57:00,37.3,26.3,30.07,SSW,208,11.0,14.0,64,0.00,,CLR,0.00,90.00,VWS V14.01,2013-11-14 13:57:00,
2013-11-14 08:02:00,37.4,26.4,30.07,SW,216,7.0,13.0,64,0.00,,CLR,0.00,100.00,VWS V14.01,2013-11-14 14:02:00,
2013-11-14 08:07:00,37.6,26.5,30.07,SW,224,9.0,14.0,64,0.00,,CLR,0.00,105.00,VWS V14.01,2013-11-14 14:07:00,
2013-11-14 08:12:00,37.8,26.7,30.07,SW,227,7.0,13.0,64,0.00,,CLR,0.00,107.00,VWS V14.01,2013-11-14 14:12:00,
2013-11-14 08:17:00,38.0,26.9,30.07,SW,214,11.0,12.0,64,0.00,,CLR,0.00,120.00,VWS V14.01,2013-11-14 14:17:00,
2013-11-14 08:22:00,38.3,26.8,30.07,SW,234,11.0,13.0,63,0.00,,CLR,0.00,153.00,VWS V14.01,2013-11-14 14:22:00,
2013-11-14 08:27:00,38.6,26.7,30.07,SW,221,10.0,12.0,62,0.00,,CLR,0.00,171.00,VWS V14.01,2013-11-14 14:27:00,
2013-11-14 08:32:00,39.0,27.1,30.07,SW,230,11.0,15.0,62,0.00,,CLR,0.00,186.00,VWS V14.01,2013-11-14 14:32:00,
2013-11-14 08:37:00,39.3,27.4,30.07,SW,235,11.0,13.0,62,0.00,,CLR,0.00,171.00,VWS V14.01,2013-11-14 14:37:00,
2013-11-14 08:42:00,39.5,27.2,30.07,SW,230,9.0,14.0,61,0.00,,CLR,0.00,162.00,VWS V14.01,2013-11-14 14:42:00,
2013-11-14 08:47:00,39.6,27.7,30.06,SSW,198,11.0,13.0,62,0.00,,CLR,0.00,151.00,VWS V14.01,2013-11-14 14:47:00,
2013-11-14 08:52:00,39.8,27.1,30.06,SW,226,7.0,14.0,60,0.00,,CLR,0.00,139.00,VWS V14.01,2013-11-14 14:52:00,
2013-11-14 08:57:00,39.9,27.6,30.07,SW,227,10.0,13.0,61,0.00,,CLR,0.00,139.00,VWS V14.01,2013-11-14 14:57:00,
2013-11-14 09:02:00,40.2,27.4,30.07,SW,226,12.0,13.0,60,0.00,,CLR,0.00,167.00,VWS V14.01,2013-11-14 15:02:00,
2013-11-14 09:07:00,40.6,27.8,30.07,WSW,244,12.0,15.0,60,0.00,,CLR,0.00,176.00,VWS V14.01,2013-11-14 15:07:00,
2013-11-14 09:12:00,41.0,27.8,30.07,WSW,241,8.0,15.0,59,0.00,,CLR,0.00,163.00,VWS V14.01,2013-11-14 15:12:00,
2013-11-14 09:17:00,41.1,27.5,30.07,SW,234,13.0,13.0,58,0.00,,CLR,0.00,221.00,VWS V14.01,2013-11-14 15:17:00,
2013-11-14 09:22:00,41.5,27.8,30.07,WSW,243,7.0,12.0,58,0.00,,CLR,0.00,244.00,VWS V14.01,2013-11-14 15:22:00,
2013-11-14 09:27:00,42.1,28.0,30.06,WSW,246,9.0,12.0,57,0.00,,CLR,0.00,218.00,VWS V14.01,2013-11-14 15:27:00,
2013-11-14 09:32:00,42.3,27.7,30.07,SW,236,11.0,12.0,56,0.00,,CLR,0.00,202.00,VWS V14.01,2013-11-14 15:32:00,
2013-11-14 09:37:00,42.3,27.7,30.06,WSW,243,12.0,17.0,56,0.00,,CLR,0.00,225.00,VWS V14.01,2013-11-14 15:37:00,
2013-11-14 09:42:00,42.3,27.7,30.06,SW,224,14.0,17.0,56,0.00,,CLR,0.00,221.00,VWS V14.01,2013-11-14 15:42:00,
2013-11-14 09:47:00,42.4,27.8,30.06,WSW,240,13.0,18.0,56,0.00,,CLR,0.00,197.00,VWS V14.01,2013-11-14 15:47:00,
2013-11-14 09:52:00,42.5,27.9,30.06,WSW,255,12.0,17.0,56,0.00,,CLR,0.00,250.00,VWS V14.01,2013-11-14 15:52:00,
2013-11-14 09:57:00,42.9,27.9,30.06,WSW,239,6.0,11.0,55,0.00,,CLR,0.00,260.00,VWS V14.01,2013-11-14 15:57:00,
2013-11-14 10:02:00,43.6,29.0,30.06,WSW,241,15.0,16.0,56,0.00,,CLR,0.00,338.00,VWS V14.01,2013-11-14 16:02:00,
2013-11-14 10:07:00,44.1,29.0,30.06,WSW,243,14.0,19.0,55,0.00,,CLR,0.00,366.00,VWS V14.01,2013-11-14 16:07:00,
2013-11-14 10:12:00,44.5,28.9,30.05,SW,215,14.0,17.0,54,0.00,,CLR,0.00,295.00,VWS V14.01,2013-11-14 16:12:00,
2013-11-14 10:17:00,44.4,28.8,30.05,WSW,245,12.0,18.0,54,0.00,,CLR,0.00,283.00,VWS V14.01,2013-11-14 16:17:00,
2013-11-14 10:22:00,44.6,29.0,30.06,SW,234,16.0,19.0,54,0.00,,CLR,0.00,399.00,VWS V14.01,2013-11-14 16:22:00,
2013-11-14 10:27:00,45.4,29.7,30.06,WSW,240,10.0,15.0,54,0.00,,CLR,0.00,374.00,VWS V14.01,2013-11-14 16:27:00,
2013-11-14 10:32:00,45.4,29.3,30.06,WSW,242,15.0,19.0,53,0.00,,CLR,0.00,364.00,VWS V14.01,2013-11-14 16:32:00,
2013-11-14 10:37:00,45.3,28.7,30.06,WSW,250,16.0,22.0,52,0.00,,CLR,0.00,380.00,VWS V14.01,2013-11-14 16:37:00,
2013-11-14 10:42:00,45.5,29.4,30.06,WSW,238,16.0,23.0,53,0.00,,CLR,0.00,422.00,VWS V14.01,2013-11-14 16:42:00,
2013-11-14 10:47:00,45.9,29.3,30.06,SW,232,20.0,20.0,52,0.00,,CLR,0.00,332.00,VWS V14.01,2013-11-14 16:47:00,
2013-11-14 10:52:00,46.0,29.4,30.06,WSW,247,10.0,19.0,52,0.00,,CLR,0.00,406.00,VWS V14.01,2013-11-14 16:52:00,
2013-11-14 10:57:00,46.7,30.0,30.06,SSW,213,16.0,18.0,52,0.00,,CLR,0.00,455.00,VWS V14.01,2013-11-14 16:57:00,
2013-11-14 11:02:00,47.3,30.6,30.06,WSW,242,13.0,17.0,52,0.00,,CLR,0.00,408.00,VWS V14.01,2013-11-14 17:02:00,
2013-11-14 11:07:00,47.8,29.6,30.05,SW,232,15.0,18.0,49,0.00,,CLR,0.00,385.00,VWS V14.01,2013-11-14 17:07:00,
2013-11-14 11:12:00,47.8,30.1,30.05,SW,235,12.0,13.0,50,0.00,,CLR,0.00,318.00,VWS V14.01,2013-11-14 17:12:00,
2013-11-14 11:17:00,47.9,29.7,30.05,SW,232,11.0,14.0,49,0.00,,CLR,0.00,308.00,VWS V14.01,2013-11-14 17:17:00,
2013-11-14 11:22:00,47.7,30.0,30.04,SW,236,14.0,18.0,50,0.00,,CLR,0.00,299.00,VWS V14.01,2013-11-14 17:22:00,
2013-11-14 11:27:00,47.3,29.6,30.04,WSW,240,15.0,19.0,50,0.00,,CLR,0.00,297.00,VWS V14.01,2013-11-14 17:27:00,
2013-11-14 11:32:00,47.6,30.4,30.03,SW,222,10.0,14.0,51,0.00,,CLR,0.00,274.00,VWS V14.01,2013-11-14 17:32:00,
2013-11-14 11:37:00,47.6,30.4,30.03,SW,232,13.0,16.0,51,0.00,,CLR,0.00,299.00,VWS V14.01,2013-11-14 17:37:00,
2013-11-14 11:42:00,48.2,31.4,30.03,SW,236,12.0,13.0,52,0.00,,CLR,0.00,374.00,VWS V14.01,2013-11-14 17:42:00,
2013-11-14 11:47:00,48.8,31.5,30.02,SW,224,14.0,17.0,51,0.00,,CLR,0.00,436.00,VWS V14.01,2013-11-14 17:47:00,
2013-11-14 11:52:00,49.5,31.1,30.02,SW,215,16.0,20.0,49,0.00,,CLR,0.00,473.00,VWS V14.01,2013-11-14 17:52:00,
2013-11-14 11:57:00,50.0,32.1,30.02,WSW,248,9.0,12.0,50,0.00,,CLR,0.00,445.00,VWS V14.01,2013-11-14 17:57:00,
2013-11-14 12:02:00,49.9,31.5,30.02,WSW,243,11.0,16.0,49,0.00,,CLR,0.00,401.00,VWS V14.01,2013-11-14 18:02:00,
2013-11-14 12:07:00,49.9,31.0,30.01,WSW,244,11.0,17.0,48,0.00,,CLR,0.00,422.00,VWS V14.01,2013-11-14 18:07:00,
2013-11-14 12:12:00,50.0,31.1,30.01,SW,225,12.0,15.0,48,0.00,,CLR,0.00,330.00,VWS V14.01,2013-11-14 18:12:00,
2013-11-14 12:17:00,49.5,30.6,30.00,SW,215,17.0,20.0,48,0.00,,CLR,0.00,255.00,VWS V14.01,2013-11-14 18:17:00,
2013-11-14 12:22:00,48.8,30.5,30.00,SW,232,10.0,15.0,49,0.00,,CLR,0.00,234.00,VWS V14.01,2013-11-14 18:22:00,
2013-11-14 12:27:00,48.5,30.2,30.00,WSW,237,10.0,14.0,49,0.00,,CLR,0.00,244.00,VWS V14.01,2013-11-14 18:27:00,
2013-11-14 12:32:00,48.8,30.5,30.00,SW,232,10.0,13.0,49,0.00,,CLR,0.00,322.00,VWS V14.01,2013-11-14 18:32:00,
2013-11-14 12:37:00,49.6,31.2,30.01,SW,234,11.0,18.0,49,0.00,,CLR,0.00,434.00,VWS V14.01,2013-11-14 18:37:00,
2013-11-14 12:42:00,50.2,32.3,30.01,SW,227,9.0,12.0,50,0.00,,CLR,0.00,469.00,VWS V14.01,2013-11-14 18:42:00,
2013-11-14 12:47:00,51.0,32.5,30.00,SW,219,10.0,15.0,49,0.00,,CLR,0.00,452.00,VWS V14.01,2013-11-14 18:47:00,
2013-11-14 12:52:00,50.9,30.9,30.00,WSW,245,13.0,17.0,46,0.00,,CLR,0.00,306.00,VWS V14.01,2013-11-14 18:52:00,
2013-11-14 12:57:00,50.2,30.8,30.00,WSW,242,7.0,15.0,47,0.00,,CLR,0.00,404.00,VWS V14.01,2013-11-14 18:57:00,
2013-11-14 13:02:00,50.6,30.6,30.00,SW,228,15.0,17.0,46,0.00,,CLR,0.00,483.00,VWS V14.01,2013-11-14 19:02:00,
2013-11-14 13:07:00,51.3,31.2,29.99,WSW,251,13.0,17.0,46,0.00,,CLR,0.00,468.00,VWS V14.01,2013-11-14 19:07:00,
2013-11-14 13:12:00,51.7,31.1,29.99,WSW,247,14.0,15.0,45,0.00,,CLR,0.00,376.00,VWS V14.01,2013-11-14 19:12:00,
2013-11-14 13:17:00,50.9,30.9,29.99,SW,233,13.0,17.0,46,0.00,,CLR,0.00,388.00,VWS V14.01,2013-11-14 19:17:00,
2013-11-14 13:22:00,51.5,32.0,29.99,SW,234,11.0,14.0,47,0.00,,CLR,0.00,515.00,VWS V14.01,2013-11-14 19:22:00,
2013-11-14 13:27:00,51.9,31.8,29.98,SW,228,15.0,19.0,46,0.00,,CLR,0.00,515.00,VWS V14.01,2013-11-14 19:27:00,
2013-11-14 13:32:00,51.8,31.1,29.98,WSW,241,14.0,20.0,45,0.00,,CLR,0.00,466.00,VWS V14.01,2013-11-14 19:32:00,
2013-11-14 13:37:00,51.7,31.1,29.98,WSW,237,11.0,19.0,45,0.00,,CLR,0.00,359.00,VWS V14.01,2013-11-14 19:37:00,
2013-11-14 13:42:00,51.7,32.1,29.98,WSW,254,16.0,19.0,47,0.00,,CLR,0.00,439.00,VWS V14.01,2013-11-14 19:42:00,
2013-11-14 13:47:00,52.0,31.3,29.98,SW,228,6.0,16.0,45,0.00,,CLR,0.00,455.00,VWS V14.01,2013-11-14 19:47:00,
2013-11-14 13:52:00,52.4,32.2,29.97,SW,234,13.0,17.0,46,0.00,,CLR,0.00,425.00,VWS V14.01,2013-11-14 19:52:00,
2013-11-14 13:57:00,52.4,32.2,29.97,SW,216,11.0,15.0,46,0.00,,CLR,0.00,403.00,VWS V14.01,2013-11-14 19:57:00,
2013-11-14 14:02:00,52.3,31.6,29.97,SW,218,14.0,18.0,45,0.00,,CLR,0.00,422.00,VWS V14.01,2013-11-14 20:02:00,
2013-11-14 14:07:00,52.1,32.0,29.97,SW,228,13.0,16.0,46,0.00,,CLR,0.00,255.00,VWS V14.01,2013-11-14 20:07:00,
2013-11-14 14:12:00,52.1,32.5,29.97,WSW,244,10.0,13.0,47,0.00,,CLR,0.00,413.00,VWS V14.01,2013-11-14 20:12:00,
2013-11-14 14:17:00,52.6,32.4,29.97,WSW,242,11.0,15.0,46,0.00,,CLR,0.00,410.00,VWS V14.01,2013-11-14 20:17:00,
2013-11-14 14:22:00,53.1,32.9,29.97,WSW,239,10.0,14.0,46,0.00,,CLR,0.00,388.00,VWS V14.01,2013-11-14 20:22:00,
2013-11-14 14:27:00,52.8,32.1,29.97,SW,216,9.0,16.0,45,0.00,,CLR,0.00,378.00,VWS V14.01,2013-11-14 20:27:00,
2013-11-14 14:32:00,53.0,32.2,29.97,WSW,237,6.0,12.0,45,0.00,,CLR,0.00,367.00,VWS V14.01,2013-11-14 20:32:00,
2013-11-14 14:37:00,53.2,33.5,29.97,SSW,211,10.0,11.0,47,0.00,,CLR,0.00,353.00,VWS V14.01,2013-11-14 20:37:00,
2013-11-14 14:42:00,53.3,32.0,29.97,WSW,257,11.0,14.0,44,0.00,,CLR,0.00,343.00,VWS V14.01,2013-11-14 20:42:00,
2013-11-14 14:47:00,53.3,33.1,29.97,SW,228,11.0,14.0,46,0.00,,CLR,0.00,332.00,VWS V14.01,2013-11-14 20:47:00,
2013-11-14 14:52:00,53.2,33.0,29.97,WSW,243,8.0,12.0,46,0.00,,CLR,0.00,229.00,VWS V14.01,2013-11-14 20:52:00,
2013-11-14 14:57:00,53.0,32.2,29.98,WSW,237,10.0,12.0,45,0.00,,CLR,0.00,322.00,VWS V14.01,2013-11-14 20:57:00,
2013-11-14 15:02:00,52.9,32.2,29.98,SW,235,10.0,12.0,45,0.00,,CLR,0.00,278.00,VWS V14.01,2013-11-14 21:02:00,
2013-11-14 15:07:00,52.8,32.6,29.97,SW,228,13.0,19.0,46,0.00,,CLR,0.00,343.00,VWS V14.01,2013-11-14 21:07:00,
2013-11-14 15:12:00,52.7,32.0,29.97,WSW,251,12.0,18.0,45,0.00,,CLR,0.00,181.00,VWS V14.01,2013-11-14 21:12:00,
2013-11-14 15:17:00,52.2,32.6,29.97,SW,234,10.0,12.0,47,0.00,,CLR,0.00,158.00,VWS V14.01,2013-11-14 21:17:00,
2013-11-14 15:22:00,52.0,31.9,29.97,WSW,245,12.0,14.0,46,0.00,,CLR,0.00,183.00,VWS V14.01,2013-11-14 21:22:00,
2013-11-14 15:27:00,52.2,32.1,29.97,WSW,246,12.0,14.0,46,0.00,,CLR,0.00,195.00,VWS V14.01,2013-11-14 21:27:00,
2013-11-14 15:32:00,52.1,32.5,29.97,WSW,241,10.0,13.0,47,0.00,,CLR,0.00,174.00,VWS V14.01,2013-11-14 21:32:00,
2013-11-14 15:37:00,51.9,32.3,29.97,SW,235,7.0,12.0,47,0.00,,CLR,0.00,72.00,VWS V14.01,2013-11-14 21:37:00,
2013-11-14 15:42:00,51.2,32.2,29.97,WSW,246,11.0,11.0,48,0.00,,CLR,0.00,49.00,VWS V14.01,2013-11-14 21:42:00,
2013-11-14 15:47:00,50.7,32.2,29.98,WSW,237,11.0,13.0,49,0.00,,CLR,0.00,58.00,VWS V14.01,2013-11-14 21:47:00,
2013-11-14 15:52:00,50.4,32.5,29.98,SW,235,5.0,8.0,50,0.00,,CLR,0.00,53.00,VWS V14.01,2013-11-14 21:52:00,
2013-11-14 15:57:00,50.0,32.6,29.98,WSW,239,7.0,9.0,51,0.00,,CLR,0.00,54.00,VWS V14.01,2013-11-14 21:57:00,
2013-11-14 16:02:00,50.0,32.1,29.98,WSW,237,9.0,11.0,50,0.00,,CLR,0.00,51.00,VWS V14.01,2013-11-14 22:02:00,
2013-11-14 16:07:00,50.0,32.1,29.97,SW,233,6.0,10.0,50,0.00,,CLR,0.00,49.00,VWS V14.01,2013-11-14 22:07:00,
2013-11-14 16:12:00,49.8,32.4,29.97,SW,228,6.0,9.0,51,0.00,,CLR,0.00,47.00,VWS V14.01,2013-11-14 22:12:00,
2013-11-14 16:17:00,49.6,32.7,29.97,SW,232,4.0,7.0,52,0.00,,CLR,0.00,39.00,VWS V14.01,2013-11-14 22:17:00,
2013-11-14 16:22:00,49.4,32.0,29.97,WSW,239,4.0,7.0,51,0.00,,CLR,0.00,32.00,VWS V14.01,2013-11-14 22:22:00,
2013-11-14 16:27:00,49.0,32.6,29.98,WSW,241,5.0,7.0,53,0.00,,CLR,0.00,30.00,VWS V14.01,2013-11-14 22:27:00,
2013-11-14 16:32:00,48.9,32.1,29.98,WSW,243,5.0,9.0,52,0.00,,CLR,0.00,23.00,VWS V14.01,2013-11-14 22:32:00,
2013-11-14 16:37:00,48.6,32.3,29.98,WSW,243,6.0,9.0,53,0.00,,CLR,0.00,16.00,VWS V14.01,2013-11-14 22:37:00,
2013-11-14 16:42:00,48.3,32.0,29.98,WSW,243,4.0,6.0,53,0.00,,CLR,0.00,11.00,VWS V14.01,2013-11-14 22:42:00,
2013-11-14 16:47:00,48.1,31.8,29.98,SW,227,3.0,7.0,53,0.00,,CLR,0.00,7.00,VWS V14.01,2013-11-14 22:47:00,
2013-11-14 16:52:00,47.8,31.5,29.98,SW,233,3.0,4.0,53,0.00,,CLR,0.00,0.00,VWS V14.01,2013-11-14 22:52:00,
2013-11-14 16:57:00,47.5,31.2,29.98,SW,233,3.0,5.0,53,0.00,,CLR,0.00,0.00,VWS V14.01,2013-11-14 22:57:00,
2013-11-14 17:02:00,47.2,31.0,29.98,SW,232,4.0,5.0,53,0.00,,CLR,0.00,0.00,VWS V14.01,2013-11-14 23:02:00,
2013-11-14 17:07:00,46.9,31.1,29.98,SW,232,3.0,4.0,54,0.00,,CLR,0.00,0.00,VWS V14.01,2013-11-14 23:07:00,
2013-11-14 17:12:00,46.9,31.1,29.98,SW,232,2.0,4.0,54,0.00,,CLR,0.00,0.00,VWS V14.01,2013-11-14 23:12:00,
2013-11-14 17:17:00,46.7,31.9,29.98,SW,232,3.0,4.0,56,0.00,,CLR,0.00,0.00,VWS V14.01,2013-11-14 23:17:00,
2013-11-14 17:22:00,46.5,32.1,29.98,SW,232,3.0,5.0,57,0.00,,CLR,0.00,0.00,VWS V14.01,2013-11-14 23:22:00,
2013-11-14 17:27:00,46.3,31.5,29.98,SW,232,3.0,4.0,56,0.00,,CLR,0.00,0.00,VWS V14.01,2013-11-14 23:27:00,
2013-11-14 17:32:00,46.3,31.5,29.98,SW,232,4.0,6.0,56,0.00,,CLR,0.00,0.00,VWS V14.01,2013-11-14 23:32:00,
2013-11-14 17:37:00,46.1,31.3,29.99,SW,232,5.0,5.0,56,0.00,,CLR,0.00,0.00,VWS V14.01,2013-11-14 23:37:00,
2013-11-14 17:42:00,45.9,31.5,29.98,SW,232,3.0,4.0,57,0.00,,CLR,0.00,0.00,VWS V14.01,2013-11-14 23:42:00,
2013-11-14 17:47:00,45.4,31.1,29.98,SW,232,4.0,4.0,57,0.00,,CLR,0.00,0.00,VWS V14.01,2013-11-14 23:47:00,
2013-11-14 17:52:00,45.3,31.0,29.98,SW,232,3.0,4.0,57,0.00,,CLR,0.00,0.00,VWS V14.01,2013-11-14 23:52:00,
2013-11-14 17:57:00,45.1,30.8,29.98,SW,232,3.0,4.0,57,0.00,,CLR,0.00,0.00,VWS V14.01,2013-11-14 23:57:00,
2013-11-14 18:02:00,44.8,30.9,29.98,SSW,213,4.0,5.0,58,0.00,,CLR,0.00,0.00,VWS V14.01,2013-11-15 00:02:00,
2013-11-14 18:07:00,44.6,31.2,29.98,SSW,212,4.0,4.0,59,0.00,,CLR,0.00,0.00,VWS V14.01,2013-11-15 00:07:00,
2013-11-14 18:13:00,44.5,31.1,29.98,SSW,212,2.0,3.0,59,0.00,,CLR,0.00,0.00,VWS V14.01,2013-11-15 00:13:00,
2013-11-14 18:18:00,44.4,31.0,29.98,SSW,211,4.0,4.0,59,0.00,,CLR,0.00,0.00,VWS V14.01,2013-11-15 00:18:00,
2013-11-14 18:23:00,44.3,31.3,29.98,SSW,210,4.0,5.0,60,0.00,,CLR,0.00,0.00,VWS V14.01,2013-11-15 00:23:00,
2013-11-14 18:28:00,44.1,31.5,29.98,SSW,210,4.0,5.0,61,0.00,,CLR,0.00,0.00,VWS V14.01,2013-11-15 00:28:00,
2013-11-14 18:33:00,43.9,31.7,29.98,SSW,210,4.0,5.0,62,0.00,,CLR,0.00,0.00,VWS V14.01,2013-11-15 00:33:00,
2013-11-14 18:38:00,43.6,31.5,29.98,SSW,210,5.0,5.0,62,0.00,,CLR,0.00,0.00,VWS V14.01,2013-11-15 00:38:00,
2013-11-14 18:43:00,43.4,31.3,29.98,SSW,210,5.0,6.0,62,0.00,,CLR,0.00,0.00,VWS V14.01,2013-11-15 00:43:00,
2013-11-14 18:48:00,43.1,31.8,29.98,SSW,210,5.0,7.0,64,0.00,,CLR,0.00,0.00,VWS V14.01,2013-11-15 00:48:00,
2013-11-14 18:53:00,43.1,32.2,29.98,SSW,205,7.0,8.0,65,0.00,,CLR,0.00,0.00,VWS V14.01,2013-11-15 00:53:00,
2013-11-14 18:58:00,43.7,32.7,29.98,SSW,198,6.0,10.0,65,0.00,,CLR,0.00,0.00,VWS V14.01,2013-11-15 00:58:00,
2013-11-14 19:03:00,44.5,32.7,29.98,SSW,201,6.0,10.0,63,0.00,,CLR,0.00,0.00,VWS V14.01,2013-11-15 01:03:00,
2013-11-14 19:08:00,44.6,32.8,29.99,South,188,9.0,10.0,63,0.00,,CLR,0.00,0.00,VWS V14.01,2013-11-15 01:08:00,
2013-11-14 19:13:00,44.3,33.3,29.98,SW,216,7.0,9.0,65,0.00,,CLR,0.00,0.00,VWS V14.01,2013-11-15 01:13:00,
2013-11-14 19:18:00,44.2,32.8,29.98,SSW,199,9.0,11.0,64,0.00,,CLR,0.00,0.00,VWS V14.01,2013-11-15 01:18:00,
2013-11-14 19:23:00,44.4,32.6,29.98,SSW,212,6.0,7.0,63,0.00,,CLR,0.00,0.00,VWS V14.01,2013-11-15 01:23:00,
2013-11-14 19:28:00,44.5,32.3,29.98,SW,214,6.0,8.0,62,0.00,,CLR,0.00,0.00,VWS V14.01,2013-11-15 01:28:00,
2013-11-14 19:33:00,44.2,32.0,29.99,SSW,208,5.0,7.0,62,0.00,,CLR,0.00,0.00,VWS V14.01,2013-11-15 01:33:00,
2013-11-14 19:38:00,44.0,32.2,29.98,SSW,200,6.0,6.0,63,0.00,,CLR,0.00,0.00,VWS V14.01,2013-11-15 01:38:00,
2013-11-14 19:43:00,43.5,31.8,29.98,SSW,198,5.0,6.0,63,0.00,,CLR,0.00,0.00,VWS V14.01,2013-11-15 01:43:00,
2013-11-14 19:48:00,42.9,31.6,29.98,SSW,199,4.0,6.0,64,0.00,,CLR,0.00,0.00,VWS V14.01,2013-11-15 01:48:00,
2013-11-14 19:53:00,42.6,31.3,29.98,SSW,207,5.0,6.0,64,0.00,,CLR,0.00,0.00,VWS V14.01,2013-11-15 01:53:00,
2013-11-14 19:58:00,42.8,31.5,29.99,SW,218,3.0,7.0,64,0.00,,CLR,0.00,0.00,VWS V14.01,2013-11-15 01:58:00,
2013-11-14 20:03:00,43.1,31.8,29.99,SW,227,4.0,6.0,64,0.00,,CLR,0.00,0.00,VWS V14.01,2013-11-15 02:03:00,
2013-11-14 20:08:00,43.5,32.2,29.99,SW,222,6.0,7.0,64,0.00,,CLR,0.00,0.00,VWS V14.01,2013-11-15 02:08:00,
2013-11-14 20:13:00,43.8,32.0,29.99,SW,229,4.0,6.0,63,0.00,,CLR,0.00,0.00,VWS V14.01,2013-11-15 02:13:00,
2013-11-14 20:18:00,43.9,32.1,29.99,SW,229,5.0,6.0,63,0.00,,CLR,0.00,0.00,VWS V14.01,2013-11-15 02:18:00,
2013-11-14 20:23:00,43.8,31.6,29.98,SW,231,3.0,5.0,62,0.00,,CLR,0.00,0.00,VWS V14.01,2013-11-15 02:23:00,
2013-11-14 20:28:00,43.6,31.5,29.98,SW,231,4.0,5.0,62,0.00,,CLR,0.00,0.00,VWS V14.01,2013-11-15 02:28:00,
2013-11-14 20:33:00,43.3,31.2,29.98,SW,231,4.0,4.0,62,0.00,,CLR,0.00,0.00,VWS V14.01,2013-11-15 02:33:00,
2013-11-14 20:38:00,42.9,30.8,29.98,SW,231,4.0,4.0,62,0.00,,CLR,0.00,0.00,VWS V14.01,2013-11-15 02:38:00,
2013-11-14 20:43:00,42.6,30.9,29.98,SW,216,5.0,5.0,63,0.00,,CLR,0.00,0.00,VWS V14.01,2013-11-15 02:43:00,
2013-11-14 20:48:00,42.5,31.6,29.98,SSW,212,5.0,5.0,65,0.00,,CLR,0.00,0.00,VWS V14.01,2013-11-15 02:48:00,
2013-11-14 20:53:00,42.6,31.7,29.98,SSW,213,3.0,4.0,65,0.00,,CLR,0.00,0.00,VWS V14.01,2013-11-15 02:53:00,
2013-11-14 20:58:00,43.1,32.2,29.98,SSW,213,4.0,4.0,65,0.00,,CLR,0.00,0.00,VWS V14.01,2013-11-15 02:58:00,
2013-11-14 21:03:00,43.2,32.6,29.98,SSW,213,3.0,4.0,66,0.00,,CLR,0.00,0.00,VWS V14.01,2013-11-15 03:03:00,
2013-11-14 21:08:00,43.1,32.5,29.98,SW,214,3.0,4.0,66,0.00,,CLR,0.00,0.00,VWS V14.01,2013-11-15 03:08:00,
2013-11-14 21:13:00,42.8,32.2,29.98,SW,218,4.0,5.0,66,0.00,,CLR,0.00,0.00,VWS V14.01,2013-11-15 03:13:00,
2013-11-14 21:18:00,42.8,32.2,29.98,WSW,237,4.0,5.0,66,0.00,,CLR,0.00,0.00,VWS V14.01,2013-11-15 03:18:00,
2013-11-14 21:23:00,42.7,31.8,29.98,WSW,237,4.0,4.0,65,0.00,,CLR,0.00,0.00,VWS V14.01,2013-11-15 03:23:00,
2013-11-14 21:28:00,42.5,31.6,29.98,WSW,237,4.0,4.0,65,0.00,,CLR,0.00,0.00,VWS V14.01,2013-11-15 03:28:00,
2013-11-14 21:33:00,42.2,31.7,29.98,WSW,237,2.0,4.0,66,0.00,,CLR,0.00,0.00,VWS V14.01,2013-11-15 03:33:00,
2013-11-14 21:38:00,42.0,31.5,29.98,WSW,237,3.0,3.0,66,0.00,,CLR,0.00,0.00,VWS V14.01,2013-11-15 03:38:00,
2013-11-14 21:43:00,41.7,31.6,29.99,WSW,237,2.0,3.0,67,0.00,,CLR,0.00,0.00,VWS V14.01,2013-11-15 03:43:00,
2013-11-14 21:48:00,41.5,31.7,29.98,WSW,237,2.0,3.0,68,0.00,,CLR,0.00,0.00,VWS V14.01,2013-11-15 03:48:00,
2013-11-14 21:53:00,41.3,31.2,29.98,WSW,237,0.0,2.0,67,0.00,,CLR,0.00,0.00,VWS V14.01,2013-11-15 03:53:00,
2013-11-14 21:58:00,41.0,30.9,29.98,WSW,237,0.0,1.0,67,0.00,,CLR,0.00,0.00,VWS V14.01,2013-11-15 03:58:00,
2013-11-14 22:03:00,40.6,30.9,29.98,WSW,237,1.0,1.0,68,0.00,,CLR,0.00,0.00,VWS V14.01,2013-11-15 04:03:00,
2013-11-14 22:08:00,40.0,30.3,29.98,WSW,237,2.0,2.0,68,0.00,,CLR,0.00,0.00,VWS V14.01,2013-11-15 04:08:00,
2013-11-14 22:13:00,39.3,30.0,29.98,WSW,237,0.0,3.0,69,0.00,,CLR,0.00,0.00,VWS V14.01,2013-11-15 04:13:00,
2013-11-14 22:18:00,39.1,30.2,29.98,WSW,237,0.0,1.0,70,0.00,,CLR,0.00,0.00,VWS V14.01,2013-11-15 04:18:00,
2013-11-14 22:23:00,38.6,30.4,29.97,South,189,3.0,5.0,72,0.00,,CLR,0.00,0.00,VWS V14.01,2013-11-15 04:23:00,
2013-11-14 22:28:00,38.8,31.6,29.98,South,190,1.0,3.0,75,0.00,,CLR,0.00,0.00,VWS V14.01,2013-11-15 04:28:00,
2013-11-14 22:33:00,38.9,31.3,29.98,South,190,0.0,1.0,74,0.00,,CLR,0.00,0.00,VWS V14.01,2013-11-15 04:33:00,
2013-11-14 22:38:00,38.7,31.1,29.98,South,190,1.0,1.0,74,0.00,,CLR,0.00,0.00,VWS V14.01,2013-11-15 04:38:00,
2013-11-14 22:43:00,38.8,31.6,29.98,South,190,0.0,0.0,75,0.00,,CLR,0.00,0.00,VWS V14.01,2013-11-15 04:43:00,
2013-11-14 22:48:00,38.7,31.8,29.98,South,190,0.0,0.0,76,0.00,,CLR,0.00,0.00,VWS V14.01,2013-11-15 04:48:00,
2013-11-14 22:53:00,38.9,32.0,29.98,South,190,0.0,1.0,76,0.00,,CLR,0.00,0.00,VWS V14.01,2013-11-15 04:53:00,
2013-11-14 22:58:00,39.0,32.1,29.98,South,190,1.0,2.0,76,0.00,,CLR,0.00,0.00,VWS V14.01,2013-11-15 04:58:00,
2013-11-14 23:01:00,39.1,32.2,29.98,South,190,2.0,2.0,76,0.00,,CLR,0.00,0.00,VWS V14.01,2013-11-15 05:01:00,
2013-11-14 23:02:00,39.2,32.3,29.98,South,190,2.0,3.0,76,0.00,,CLR,0.00,0.00,VWS V14.01,2013-11-15 05:02:00,
2013-11-14 23:07:00,39.2,32.0,29.97,South,190,1.0,1.0,75,0.00,,CLR,0.00,0.00,VWS V14.01,2013-11-15 05:07:00,
2013-11-14 23:12:00,38.9,31.7,29.97,South,190,3.0,4.0,75,0.00,,CLR,0.00,0.00,VWS V14.01,2013-11-15 05:12:00,
2013-11-14 23:17:00,38.8,31.9,29.97,South,190,4.0,4.0,76,0.00,,CLR,0.00,0.00,VWS V14.01,2013-11-15 05:17:00,
2013-11-14 23:22:00,38.9,32.0,29.97,South,188,2.0,3.0,76,0.00,,CLR,0.00,0.00,VWS V14.01,2013-11-15 05:22:00,
2013-11-14 23:27:00,39.3,32.4,29.97,SSW,192,3.0,5.0,76,0.00,,CLR,0.00,0.00,VWS V14.01,2013-11-15 05:27:00,
2013-11-14 23:32:00,39.6,32.7,29.97,SSW,199,4.0,6.0,76,0.00,,CLR,0.00,0.00,VWS V14.01,2013-11-15 05:32:00,
2013-11-14 23:37:00,39.8,32.5,29.97,SSW,201,5.0,7.0,75,0.00,,CLR,0.00,0.00,VWS V14.01,2013-11-15 05:37:00,
2013-11-14 23:42:00,40.3,33.0,29.97,SSW,196,4.0,8.0,75,0.00,,CLR,0.00,0.00,VWS V14.01,2013-11-15 05:42:00,
2013-11-14 23:47:00,40.8,33.2,29.98,SSW,210,7.0,10.0,74,0.00,,CLR,0.00,0.00,VWS V14.01,2013-11-15 05:47:00,
2013-11-14 23:52:00,41.2,33.2,29.98,SW,226,6.0,9.0,73,0.00,,CLR,0.00,0.00,VWS V14.01,2013-11-15 05:52:00,
2013-11-14 23:57:00,41.5,32.8,29.98,SW,224,6.0,6.0,71,0.00,,CLR,0.00,0.00,VWS V14.01,2013-11-15 05:57:00,